Regional Weather Roundup
Issued by NWS State College, PA

Home | Current Version | Previous Version | Text Only | Print | Product List | Glossary Off
Versions: 1 2 3 4 5 6 7 8 9 10 11 12 13 14 15 16 17 18 19 20 21 22 23 24 25 26 27 28 29 30 31 32 33 34 35 36 37 38 39 40 41 42 43 44 45 46 47 48 49 50

000
ASUS41 KCTP 220310
RWRCTP

REGIONAL WEATHER ROUNDUP
NATIONAL WEATHER SERVICE STATE COLLEGE PA
1000 PM EST SUN DEC 21 2014

Note: "fair" indicates few or no clouds below 12,000 feet with no
significant weather and/or obstructions to visibility.

* = STATION THAT DOES NOT REPORT PRECIPITATION /E.G. RAIN...SNOW...ETC/
    THUNDER OR FOG.

PAZ002>004-007>009-013>016-020>023-029>032-220400-
WESTERN PENNSYLVANIA

CITY           SKY/WX    TMP DP  RH WIND       PRES   REMARKS
ERIE           CLOUDY    32  21  64 SE6       30.25F
MEADVILLE      CLOUDY    29  21  72 VRB3      30.20F
FRANKLIN*      PTCLDY    27  19  74 E3        30.22F
NEW CASTLE       N/A     27  22  81 CALM      30.23F
BEAVER COUNTY  NOT AVBL
BUTLER*        CLEAR     25  19  80 E6        30.22S
PITTSBURGH INT PTCLDY    27  22  81 CALM      30.20F
PITTSBURGH     CLEAR     27  19  72 NE5       30.19F
INDIANA*       CLEAR     27  21  80 E8        30.25S
LATROBE        MOCLDY    30  23  74 CALM      30.22F
WASHINGTON CO* NOT AVBL
$$

PAZ004>006-010>012-017>019-024>028-033>037-041-042-045-046-049>053-220400-
CENTRAL PENNSYLVANIA

CITY           SKY/WX    TMP DP  RH WIND       PRES   REMARKS
BRADFORD       PTCLDY    21  17  84 SE3       30.19F
DUBOIS         PTCLDY    22  18  85 E8        30.20F WCI  12
CLEARFIELD     PTCLDY    22  19  89 CALM      30.25R
JOHNSTOWN      PTCLDY    23  18  81 SE5       30.18S
ALTOONA        PTCLDY    25  21  85 CALM      30.26R
STATE COLLEGE  PTCLDY    26  21  83 CALM      30.29R
WILLIAMSPORT   CLEAR     24  18  77 CALM      30.32S
SELINSGROVE    PTCLDY    23  20  88 CALM      30.34R
FT INDIANTOWN  PTCLDY    23  20  87 N1        30.33R
CAPITAL CITY   CLEAR     25  20  81 SW3       30.34S
HARRISBURG     PTCLDY    24  20  84 CALM      30.33S
YORK           CLEAR     20  17  88 CALM      30.32F
$$

PAZ038>040-043-044-047-048-054-055-060>062-067>071-220400-
EASTERN PENNSYLVANIA

CITY           SKY/WX    TMP DP  RH WIND       PRES   REMARKS
SCRANTON       CLOUDY    30  21  69 CALM      30.30S
MOUNT POCONO   CLOUDY    28  22  78 E5        30.23F
ALLENTOWN      CLOUDY    26  20  77 CALM      30.32F
QUAKERTOWN*    PTCLDY    23  19  86 CALM      30.32S
READING        PTCLDY    27  21  78 CALM      30.33S
LANCASTER      CLEAR     26  21  81 CALM      30.33R
COATESVILLE    CLEAR     28  25  86 MISG      30.32S
POTTSTOWN      PTCLDY    24  19  81 CALM      30.34S
BLUE BELL      PTCLDY    28  25  86 CALM      30.32S
DOYLESTOWN     CLOUDY    27  23  85 CALM      30.32R
WILLOW GROVE   NOT AVBL
NORTH PHILA    CLOUDY    31  22  69 CALM      30.35S
PHILADELPHIA   CLEAR     34  22  61 VRB3      30.35F
$$


USA.gov is the U.S. government's official web portal to all federal, state and local government web resources and services.